This is the latest recevied weather packets stored in our database for station/object KD7AWQ. If no packets are shown the sender has not sent any weather packets the latest 10 day(s).
| Time | Temp. | Humidity | Pressure | Rain* | Wind** | Luminosity | Snow |
|---|---|---|---|---|---|---|---|
| 1777999909 | 15° C | 68% | 1181.9 hPa | 0 mm | - | 239 W/m² | - |
| 1777999604 | 14.44° C | 71% | 1181.6 hPa | 0 mm | - | 170 W/m² | - |
| 1777999302 | 14.44° C | 72% | 1181.9 hPa | 0 mm | - | 288 W/m² | - |
| 1777999000 | 14.44° C | 71% | 1182 hPa | 0 mm | - | 306 W/m² | - |
| 1777998698 | 14.44° C | 76% | 1181.9 hPa | 0 mm | - | 288 W/m² | - |
| 1777998395 | 14.44° C | 74% | 1181.8 hPa | 0 mm | - | 406 W/m² | - |
| 1777998092 | 15° C | 72% | 1182 hPa | 0 mm | - | 149 W/m² | - |
| 1777997789 | 15° C | 71% | 1181.5 hPa | 0 mm | - | 187 W/m² | - |
| 1777997486 | 14.44° C | 72% | 1181.8 hPa | 0 mm | - | 744 W/m² | - |
| 1777997184 | 13.89° C | 73% | 1181.9 hPa | 0 mm | - | 315 W/m² | - |
| 1777996882 | 13.89° C | 73% | 1181.9 hPa | 0 mm | - | 367 W/m² | - |
| 1777996577 | 14.44° C | 73% | 1181.8 hPa | 0 mm | - | 383 W/m² | - |
| 1777996274 | 14.44° C | 75% | 1181.8 hPa | 0 mm | - | 543 W/m² | - |
| 1777995970 | 14.44° C | 72% | 1181.8 hPa | 0 mm | - | 307 W/m² | - |
| 1777995666 | 13.89° C | 73% | 1181.6 hPa | 0 mm | - | 701 W/m² | - |
| 1777995364 | 14.44° C | 75% | 1181.6 hPa | 0 mm | - | 405 W/m² | - |
| 1777995061 | 13.89° C | 74% | 1181.8 hPa | 0 mm | - | 330 W/m² | - |
| 1777994757 | 13.89° C | 77% | 1181.6 hPa | 0 mm | - | 354 W/m² | - |
| 1777994453 | 13.89° C | 78% | 1182 hPa | 0 mm | - | 264 W/m² | - |
| 1777994148 | 13.33° C | 80% | 1181.6 hPa | 0 mm | - | 554 W/m² | - |
| 1777993846 | 13.33° C | 81% | 1181.8 hPa | 0 mm | - | 141 W/m² | - |
| 1777993542 | 13.33° C | 81% | 1181.6 hPa | 0 mm | - | 244 W/m² | - |
| 1777993239 | 12.78° C | 80% | 1181.4 hPa | 0 mm | - | 490 W/m² | - |
| 1777992935 | 12.78° C | 82% | 1181.8 hPa | 0 mm | - | 136 W/m² | - |
| 1777992633 | 12.78° C | 85% | 1181.6 hPa | 0 mm | - | 249 W/m² | - |
* Rain latest hour (hover to see other rain measurements)
** Current wind speed in m/s (hover to see current wind gust speed)